DW8947 Weather Reports


Display with metric or nautical units.
time (UTC)temp
F
wind
direction
speed
MPH
gust
MPH
rain 1hr
in
rain 24hr
in
rain mn
in
humidity
%
barometer
mb
20200409053147 49 358 0.0 0.0 0.00 0.00 0.00 68 1022.4
20200409052647 49 358 0.0 0.0 0.00 0.00 0.00 67 1022.5
20200409052147 49 358 0.0 0.0 0.00 0.00 0.00 67 1022.5
20200409051648 49 358 0.0 0.0 0.00 0.00 0.00 66 1022.4
20200409051147 50 358 0.0 0.0 0.00 0.00 0.00 66 1022.4
20200409050648 50 358 0.0 0.0 0.00 0.00 0.00 65 1022.5
20200409050147 50 358 0.0 0.0 0.00 0.00 0.00 64 1022.6
20200409045647 50 358 0.0 0.0 0.00 0.00 0.00 65 1022.6
20200409045148 50 358 0.0 0.0 0.00 0.00 0.00 65 1022.7
20200409044648 50 358 0.0 0.0 0.00 0.00 0.00 65 1022.7
20200409044148 50 358 0.0 1.0 0.00 0.00 0.00 65 1022.7
20200409043648 50 357 0.0 3.0 0.00 0.00 0.00 65 1022.7
20200409043148 50 335 0.0 3.0 0.00 0.00 0.00 66 1022.7
20200409042648 50 345 0.0 0.0 0.00 0.00 0.00 68 1022.6
20200409042148 50 345 0.0 0.0 0.00 0.00 0.00 68 1022.6
20200409041648 50 345 0.0 0.0 0.00 0.00 0.00 70 1022.6
20200409041216 50 345 0.0 0.0 0.00 0.00 0.00 70 1022.5
20200409040648 50 344 0.0 2.0 0.00 0.00 0.00 68 1022.6
20200409040148 50 343 0.0 0.0 0.00 0.00 0.00 69 1022.6
20200409035648 50 340 0.0 0.0 0.00 0.00 0.00 70 1022.6
20200409035148 50 340 0.0 0.0 0.00 0.00 0.00 70 1022.5
20200409034648 50 340 0.0 0.0 0.00 0.00 0.00 71 1022.5
20200409034148 50 340 0.0 0.0 0.00 0.00 0.00 71 1022.4
20200409033648 50 340 0.0 0.0 0.00 0.00 0.00 71 1022.4
20200409033148 50 340 0.0 0.0 0.00 0.00 0.00 70 1022.4
20200409032649 51 340 0.0 0.0 0.00 0.00 0.00 69 1022.3
20200409032148 51 339 0.0 3.0 0.00 0.00 0.00 69 1022.3
20200409031648 51 3 0.0 0.0 0.00 0.00 0.00 69 1022.3
20200409031149 51 3 0.0 0.0 0.00 0.00 0.00 68 1022.3
20200409030648 51 3 0.0 0.0 0.00 0.00 0.00 68 1022.3
20200409030149 52 3 0.0 2.0 0.00 0.00 0.00 68 1022.2
20200409025649 52 340 0.0 0.0 0.00 0.00 0.00 68 1022.2
20200409025148 52 340 0.0 3.0 0.00 0.00 0.00 67 1022.2
20200409024648 53 335 0.0 2.0 0.00 0.00 0.00 66 1022.1
20200409024148 53 329 0.0 0.0 0.00 0.00 0.00 66 1022.2
20200409023648 53 329 0.0 0.0 0.00 0.00 0.00 65 1022.2
20200409023148 54 329 0.0 0.0 0.00 0.00 0.00 65 1022.3
20200409022648 54 329 0.0 0.0 0.00 0.00 0.00 65 1022.2
20200409022147 54 329 0.0 3.0 0.00 0.00 0.00 63 1022.2
20200409021648 54 337 1.0 9.0 0.00 0.00 0.00 61 1022.3
20200409021148 55 329 0.0 1.0 0.00 0.00 0.00 63 1022.2
20200409020648 55 329 1.0 3.0 0.00 0.00 0.00 63 1022.2
20200409020148 55 327 1.0 7.0 0.00 0.00 0.00 62 1022.3
20200409015648 55 305 0.0 0.0 0.00 0.00 0.00 60 1022.3
20200409015148 56 305 0.0 10.0 0.00 0.00 0.00 61 1022.3
20200409014648 56 308 1.0 3.0 0.00 0.00 0.00 61 1022.2
20200409014147 56 6 0.0 6.0 0.00 0.00 0.00 59 1022.3
20200409013648 56 257 1.0 5.0 0.00 0.00 0.00 58 1022.3
20200409013148 57 250 0.0 1.0 0.00 0.00 0.00 57 1022.2
20200409012648 57 250 0.0 3.0 0.00 0.00 0.00 56 1022.3
20200409012148 57 302 1.0 3.0 0.00 0.00 0.00 55 1022.3
20200409011648 57 254 0.0 3.0 0.00 0.00 0.00 56 1022.3
20200409011148 57 311 1.0 7.0 0.00 0.00 0.00 55 1022.4
20200409010648 57 228 0.0 3.0 0.00 0.00 0.00 55 1022.4
20200409010148 57 354 1.0 6.0 0.00 0.00 0.00 55 1022.5
20200409005648 58 106 0.0 1.0 0.00 0.00 0.00 56 1022.5
20200409005149 58 108 0.0 3.0 0.00 0.00 0.00 56 1022.5
20200409004648 58 91 1.0 5.0 0.00 0.00 0.00 54 1022.5
20200409004149 58 163 0.0 0.0 0.00 0.00 0.00 54 1022.5
20200409003648 58 163 0.0 3.0 0.00 0.00 0.00 54 1022.5
20200409003148 58 300 0.0 3.0 0.00 0.00 0.00 53 1022.6
20200409002649 58 343 1.0 3.0 0.00 0.00 0.00 53 1022.7
20200409002148 58 317 0.0 6.0 0.00 0.00 0.00 52 1022.6
20200409001649 59 337 1.0 6.0 0.00 0.00 0.00 52 1022.7
20200409001149 59 253 1.0 5.0 0.00 0.00 0.00 50 1022.7
20200409000648 59 252 1.0 7.0 0.00 0.00 0.00 50 1022.7
20200409000149 59 263 2.0 7.0 0.00 0.00 0.00 49 1022.7
20200408235648 60 148 1.0 5.0 0.00 0.00 0.00 50 1022.7
20200408235149 59 356 1.0 6.0 0.00 0.00 0.00 50 1022.7
20200408234648 60 311 0.0 2.0 0.00 0.00 0.00 50 1022.8
20200408234148 60 328 1.0 5.0 0.00 0.00 0.00 51 1022.8
20200408233648 60 8 0.0 0.0 0.00 0.00 0.00 51 1022.8
20200408233149 60 11 0.0 10.0 0.00 0.00 0.00 50 1022.8
20200408232649 60 206 1.0 3.0 0.00 0.00 0.00 49 1022.9
20200408232148 60 279 0.0 3.0 0.00 0.00 0.00 50 1022.9
20200408231649 60 0 1.0 7.0 0.00 0.00 0.00 51 1023.0
20200408231149 60 329 1.0 3.0 0.00 0.00 0.00 50 1023.1
20200408230648 60 207 0.0 2.0 0.00 0.00 0.00 49 1023.1
20200408230148 60 314 1.0 3.0 0.00 0.00 0.00 50 1023.2
20200408225649 60 331 1.0 3.0 0.00 0.00 0.00 49 1023.2
20200408225149 60 297 1.0 3.0 0.00 0.00 0.00 48 1023.2
20200408224649 61 205 0.0 3.0 0.00 0.00 0.00 50 1023.3
20200408224149 60 232 0.0 6.0 0.00 0.00 0.00 49 1023.3
20200408223649 60 276 1.0 3.0 0.00 0.00 0.00 51 1023.3
20200408223148 60 265 1.0 3.0 0.00 0.00 0.00 50 1023.4
20200408222649 60 264 2.0 7.0 0.00 0.00 0.00 49 1023.4
20200408222149 60 353 1.0 12.0 0.00 0.00 0.00 49 1023.4
20200408221649 61 348 2.0 5.0 0.00 0.00 0.00 50 1023.6
20200408221148 60 156 1.0 2.0 0.00 0.00 0.00 51 1023.6
20200408220649 60 253 0.0 3.0 0.00 0.00 0.00 51 1023.7
20200408220149 60 258 1.0 3.0 0.00 0.00 0.00 52 1023.8
20200408215649 60 281 2.0 7.0 0.00 0.00 0.00 50 1023.9
20200408215153 60 262 1.0 3.0 0.00 0.00 0.00 52 1024.0
20200408214649 60 336 0.0 2.0 0.00 0.00 0.00 52 1024.0
20200408214148 60 327 2.0 5.0 0.00 0.00 0.00 52 1024.1
20200408213649 60 146 1.0 6.0 0.00 0.00 0.00 54 1024.0
20200408213149 60 296 2.0 10.0 0.00 0.00 0.00 54 1024.1
20200408212649 59 196 1.0 3.0 0.00 0.00 0.00 55 1024.1
20200408212149 59 266 0.0 2.0 0.00 0.00 0.00 56 1024.2
20200408211649 58 263 1.0 3.0 0.00 0.00 0.00 56 1024.2
20200408211149 58 257 2.0 3.0 0.00 0.00 0.00 55 1024.2
20200408210649 59 252 1.0 6.0 0.00 0.00 0.00 55 1024.3
20200408210150 59 266 1.0 5.0 0.00 0.00 0.00 56 1024.3
20200408205650 59 250 1.0 9.0 0.00 0.00 0.00 56 1024.4
20200408205149 59 296 0.0 6.0 0.00 0.00 0.00 57 1024.4
20200408204649 59 312 1.0 3.0 0.00 0.00 0.00 57 1024.5
20200408204149 58 252 1.0 5.0 0.00 0.00 0.00 58 1024.6
20200408203649 58 327 1.0 6.0 0.00 0.00 0.00 56 1024.7
20200408203149 58 327 1.0 5.0 0.00 0.00 0.00 57 1024.6
20200408202649 58 250 1.0 3.0 0.00 0.00 0.00 58 1024.7
20200408202149 58 274 1.0 5.0 0.00 0.00 0.00 57 1024.7
20200408201649 58 317 2.0 7.0 0.00 0.00 0.00 58 1024.7
20200408201149 57 309 2.0 10.0 0.00 0.00 0.00 58 1024.8
20200408200649 57 233 1.0 6.0 0.00 0.00 0.00 59 1024.9
20200408200150 58 296 0.0 3.0 0.00 0.00 0.00 57 1024.9
20200408195649 58 307 2.0 10.0 0.00 0.00 0.00 57 1025.0
20200408195149 58 259 0.0 2.0 0.00 0.00 0.00 59 1024.9
20200408194650 57 254 1.0 7.0 0.00 0.00 0.00 59 1025.0
20200408194150 57 261 0.0 3.0 0.00 0.00 0.00 60 1025.0
20200408193649 57 312 1.0 2.0 0.00 0.00 0.00 59 1025.0
20200408193149 57 347 1.0 3.0 0.00 0.00 0.00 59 1025.1
20200408192649 56 324 1.0 3.0 0.00 0.00 0.00 60 1025.2
20200408192150 56 284 1.0 7.0 0.00 0.00 0.00 60 1025.3
20200408191649 56 260 2.0 6.0 0.00 0.00 0.00 61 1025.3
20200408191150 56 288 1.0 3.0 0.00 0.00 0.00 60 1025.3
20200408190649 56 253 1.0 5.0 0.00 0.00 0.00 61 1025.4
20200408190150 56 335 1.0 6.0 0.00 0.00 0.00 61 1025.3
20200408185649 56 348 2.0 12.0 0.00 0.00 0.00 62 1025.4
20200408185150 55 274 0.0 3.0 0.00 0.00 0.00 62 1025.4
20200408184649 55 262 1.0 3.0 0.00 0.00 0.00 62 1025.4
20200408184150 55 238 0.0 2.0 0.00 0.00 0.00 63 1025.3
20200408183651 54 241 0.0 3.0 0.00 0.00 0.00 63 1025.4
20200408183150 54 291 2.0 6.0 0.00 0.00 0.00 64 1025.4
20200408182650 54 290 0.0 5.0 0.00 0.00 0.00 64 1025.4
20200408182150 54 254 1.0 3.0 0.00 0.00 0.00 64 1025.4
20200408181649 53 285 1.0 5.0 0.00 0.00 0.00 64 1025.4
20200408181151 53 298 0.0 3.0 0.00 0.00 0.00 65 1025.4
20200408180650 53 291 0.0 2.0 0.00 0.00 0.00 67 1025.5
20200408180153 53 318 1.0 5.0 0.00 0.00 0.00 67 1025.6
20200408175650 52 338 0.0 5.0 0.00 0.00 0.00 68 1025.5
20200408175149 52 293 1.0 3.0 0.00 0.00 0.00 68 1025.5
20200408174650 52 357 2.0 7.0 0.00 0.00 0.00 69 1025.7
20200408174150 51 119 0.0 3.0 0.00 0.00 0.00 70 1025.7
20200408173650 51 154 0.0 6.0 0.00 0.00 0.00 70 1025.7
20200408173149 51 351 1.0 3.0 0.00 0.00 0.00 72 1025.7
20200408172650 51 346 1.0 3.0 0.00 0.00 0.00 76 1025.8
20200408172151 50 112 0.0 5.0 0.00 0.00 0.00 79 1025.8
20200408171650 50 227 0.0 3.0 0.00 0.00 0.00 80 1025.7
20200408171150 50 355 0.0 0.0 0.00 0.00 0.00 79 1025.6
20200408170649 50 355 1.0 3.0 0.00 0.00 0.00 79 1025.5
20200408170149 49 340 1.0 6.0 0.00 0.00 0.00 80 1025.6
20200408165650 49 304 0.0 1.0 0.00 0.00 0.00 81 1025.6
20200408165150 49 303 1.0 3.0 0.00 0.00 0.00 81 1025.6
20200408164650 49 298 0.0 1.0 0.00 0.00 0.00 82 1025.6
20200408164150 48 298 1.0 3.0 0.00 0.00 0.00 82 1025.6
20200408163650 48 225 0.0 3.0 0.00 0.00 0.00 82 1025.5
20200408163153 48 77 1.0 3.0 0.00 0.00 0.00 83 1025.6
20200408162649 48 48 0.0 2.0 0.00 0.00 0.00 84 1025.6
20200408162150 47 32 1.0 6.0 0.00 0.00 0.00 83 1025.7
20200408161650 47 340 0.0 3.0 0.00 0.00 0.00 86 1025.7
20200408161150 47 348 0.0 3.0 0.00 0.00 0.00 86 1025.7
20200408160650 47 30 0.0 6.0 0.00 0.00 0.00 87 1025.8
20200408160150 47 26 0.0 2.0 0.00 0.00 0.00 87 1025.7
20200408155651 46 339 2.0 5.0 0.00 0.00 0.00 87 1025.7
20200408155150 46 349 0.0 3.0 0.00 0.00 0.00 88 1025.7
20200408154651 46 352 0.0 1.0 0.00 0.00 0.00 88 1025.8
20200408154151 46 316 0.0 3.0 0.00 0.00 0.00 89 1025.9
20200408153650 45 306 0.0 1.0 0.00 0.00 0.00 89 1025.9
20200408153151 45 306 0.0 2.0 0.00 0.00 0.00 90 1025.9
20200408152650 45 307 1.0 5.0 0.00 0.00 0.00 91 1025.9
20200408152150 45 270 0.0 0.0 0.00 0.00 0.00 91 1025.9
20200408151650 44 270 0.0 0.0 0.00 0.00 0.00 92 1025.8
20200408151150 44 270 0.0 2.0 0.00 0.00 0.00 93 1025.8
20200408150650 43 345 0.0 1.0 0.00 0.00 0.00 93 1025.8
20200408150150 43 345 0.0 1.0 0.00 0.00 0.00 93 1025.7
20200408145650 43 348 0.0 0.0 0.00 0.00 0.00 93 1025.7
20200408145150 43 346 0.0 2.0 0.00 0.00 0.00 93 1025.6
20200408144650 42 349 0.0 1.0 0.00 0.00 0.00 93 1025.6
20200408144150 42 16 0.0 2.0 0.00 0.00 0.00 93 1025.6
20200408143651 42 21 0.0 0.0 0.00 0.00 0.00 93 1025.6
20200408143218 42 21 0.0 2.0 0.00 0.00 0.00 93 1025.5
20200408142650 42 340 0.0 3.0 0.00 0.00 0.00 93 1025.5
20200408142150 42 343 0.0 1.0 0.00 0.00 0.00 93 1025.4
20200408141650 42 343 0.0 0.0 0.00 0.00 0.00 93 1025.4
20200408141150 41 343 0.0 0.0 0.00 0.00 0.00 93 1025.2
20200408140651 41 343 0.0 0.0 0.00 0.00 0.00 93 1025.1
20200408140151 41 343 0.0 0.0 0.00 0.00 0.00 93 1025.1
20200408135653 41 343 0.0 0.0 0.00 0.00 0.00 93 1025.2
20200408135151 42 343 0.0 0.0 0.00 0.00 0.00 93 1025.1
20200408134650 42 343 0.0 0.0 0.00 0.00 0.00 93 1025.0
20200408134151 42 343 0.0 0.0 0.00 0.00 0.00 93 1025.1
20200408133651 42 343 0.0 0.0 0.00 0.00 0.00 93 1025.1
20200408133151 42 343 0.0 0.0 0.00 0.00 0.00 93 1025.0
20200408132651 42 343 0.0 0.0 0.00 0.00 0.00 93 1025.0
20200408132150 42 336 0.0 0.0 0.00 0.00 0.00 93 1025.0
20200408131650 42 336 0.0 0.0 0.00 0.00 0.00 93 1025.0
20200408131151 42 336 0.0 0.0 0.00 0.00 0.00 93 1024.9
20200408130651 42 336 0.0 0.0 0.00 0.00 0.00 93 1024.9
20200408130200 42 336 0.0 0.0 0.00 0.00 0.00 93 1025.0
20200408125651 42 336 0.0 0.0 0.00 0.00 0.00 93 1025.0
20200408125151 42 336 0.0 1.0 0.00 0.00 0.00 93 1024.9
20200408124651 42 335 0.0 0.0 0.00 0.00 0.00 93 1024.9
20200408124151 42 335 0.0 0.0 0.00 0.00 0.00 92 1024.9
20200408123650 42 335 0.0 0.0 0.00 0.00 0.00 92 1025.0
20200408123151 42 335 0.0 0.0 0.00 0.00 0.00 92 1025.0
20200408122651 42 335 0.0 0.0 0.00 0.00 0.00 92 1025.0
20200408122151 42 335 0.0 0.0 0.00 0.00 0.00 92 1025.0
20200408121651 42 335 0.0 0.0 0.00 0.00 0.00 92 1024.9
20200408121151 42 335 0.0 2.0 0.00 0.00 0.00 92 1024.7
20200408120651 42 333 0.0 0.0 0.00 0.00 0.00 92 1024.7
20200408120151 43 333 0.0 0.0 0.00 0.00 0.00 92 1024.7
20200408115650 43 333 0.0 0.0 0.00 0.00 0.00 92 1024.8
20200408115151 43 333 0.0 0.0 0.00 0.00 0.00 92 1024.7
20200408114651 43 333 0.0 0.0 0.00 0.00 0.00 92 1024.7
20200408114151 43 333 0.0 0.0 0.00 0.00 0.00 92 1024.7
20200408113652 43 333 0.0 0.0 0.00 0.00 0.00 92 1024.8
20200408113151 43 333 0.0 0.0 0.00 0.00 0.00 92 1024.8
20200408112652 43 333 0.0 0.0 0.00 0.00 0.00 92 1024.9
20200408112152 43 333 0.0 3.0 0.00 0.00 0.00 92 1024.9
20200408111651 43 325 0.0 0.0 0.00 0.00 0.00 92 1024.9
20200408111151 43 325 0.0 0.0 0.00 0.00 0.00 92 1024.9
20200408110651 43 325 0.0 0.0 0.00 0.00 0.00 92 1024.9
20200408110151 43 325 0.0 2.0 0.00 0.00 0.00 92 1024.9
20200408105651 43 325 0.0 0.0 0.00 0.00 0.00 92 1024.9
20200408105151 43 325 0.0 0.0 0.00 0.00 0.00 92 1024.9
20200408104651 43 325 0.0 0.0 0.00 0.00 0.00 92 1024.8
20200408104151 43 325 0.0 0.0 0.00 0.00 0.00 92 1024.9
20200408103652 43 325 0.0 5.0 0.00 0.00 0.00 91 1024.8
20200408103152 43 331 0.0 0.0 0.00 0.00 0.00 91 1024.8
20200408102651 43 331 0.0 1.0 0.00 0.00 0.00 91 1024.7
20200408102151 43 354 0.0 5.0 0.00 0.00 0.00 91 1024.7
20200408101651 43 356 0.0 0.0 0.00 0.00 0.00 90 1024.6
20200408101151 43 354 0.0 0.0 0.00 0.00 0.00 91 1024.7
20200408100651 43 354 0.0 0.0 0.00 0.00 0.00 90 1024.6
20200408100151 43 354 0.0 2.0 0.00 0.00 0.00 90 1024.6
20200408095652 43 354 0.0 1.0 0.00 0.00 0.00 90 1024.7
20200408095152 43 354 0.0 1.0 0.00 0.00 0.00 90 1024.7
20200408094651 43 354 0.0 1.0 0.00 0.00 0.00 90 1024.7
20200408094152 43 354 0.0 1.0 0.00 0.00 0.00 90 1024.6
20200408093652 43 354 1.0 3.0 0.00 0.00 0.00 90 1024.6
20200408093151 43 63 0.0 0.0 0.00 0.00 0.00 90 1024.6
20200408092653 43 63 0.0 0.0 0.00 0.00 0.00 90 1024.5
20200408092152 43 63 0.0 1.0 0.00 0.00 0.00 90 1024.5
20200408091152 43 69 0.0 0.0 0.00 0.00 0.00 89 1024.5
20200408090652 43 69 0.0 0.0 0.00 0.00 0.00 89 1024.6
20200408090156 43 86 0.0 2.0 0.00 0.00 0.00 89 1024.6
20200408085651 43 94 0.0 3.0 0.00 0.00 0.00 89 1024.6
20200408085152 43 113 0.0 3.0 0.00 0.00 0.00 89 1024.6
20200408084652 43 317 0.0 2.0 0.00 0.00 0.00 89 1024.5
20200408084152 43 318 1.0 3.0 0.00 0.00 0.00 88 1024.5
20200408083651 43 357 0.0 0.0 0.00 0.00 0.00 88 1024.5
20200408083152 43 357 0.0 0.0 0.00 0.00 0.00 88 1024.6
20200408082652 44 357 0.0 0.0 0.00 0.00 0.00 88 1024.6
20200408082152 44 357 0.0 0.0 0.00 0.00 0.00 87 1024.5
20200408081655 44 357 0.0 0.0 0.00 0.00 0.00 87 1024.3
20200408081152 44 357 0.0 0.0 0.00 0.00 0.00 87 1024.3
20200408080652 44 357 0.0 2.0 0.00 0.00 0.00 87 1024.3
20200408080151 44 357 0.0 3.0 0.00 0.00 0.00 87 1024.3
20200408075652 44 15 0.0 0.0 0.00 0.00 0.00 87 1024.3
20200408075152 44 15 0.0 0.0 0.00 0.00 0.00 86 1024.3
20200408074652 44 15 0.0 1.0 0.00 0.00 0.00 86 1024.3
20200408074152 44 14 0.0 0.0 0.00 0.00 0.00 85 1024.4
20200408073652 44 14 0.0 0.0 0.00 0.00 0.00 85 1024.3
20200408073152 44 14 0.0 0.0 0.00 0.00 0.00 84 1024.4
20200408072652 44 14 0.0 0.0 0.00 0.00 0.00 84 1024.4
20200408072152 45 14 0.0 0.0 0.00 0.00 0.00 84 1024.4
20200408071652 45 14 0.0 0.0 0.00 0.00 0.00 84 1024.5
20200408071152 45 14 0.0 0.0 0.00 0.00 0.00 84 1024.5
20200408070652 45 14 1.0 5.0 0.00 0.00 0.00 84 1024.5
20200408070152 45 52 0.0 2.0 0.00 0.00 0.00 84 1024.5
20200408065652 45 61 0.0 0.0 0.00 0.00 0.00 84 1024.5
20200408065152 45 61 0.0 0.0 0.00 0.00 0.00 83 1024.5
20200408064713 45 61 0.0 0.0 0.00 0.00 0.00 83 1024.5
20200408064152 46 61 0.0 0.0 0.00 0.00 0.00 82 1024.4
20200408063652 46 61 0.0 0.0 0.00 0.00 0.00 81 1024.3
20200408063152 46 61 0.0 2.0 0.00 0.00 0.00 81 1024.4
20200408062652 46 69 0.0 0.0 0.00 0.00 0.00 80 1024.4
20200408062152 46 69 0.0 0.0 0.00 0.00 0.00 79 1024.3
20200408061652 46 69 0.0 0.0 0.00 0.00 0.00 78 1024.3
20200408061152 47 69 0.0 0.0 0.00 0.00 0.00 77 1024.2
20200408060653 47 69 0.0 0.0 0.00 0.00 0.00 76 1024.2
20200408060153 47 69 0.0 1.0 0.00 0.00 0.00 76 1024.1
20200408055653 47 73 0.0 0.0 0.00 0.00 0.00 75 1024.0
20200408055153 47 73 0.0 0.0 0.00 0.00 0.00 74 1024.1
20200408054653 47 73 0.0 0.0 0.00 0.00 0.00 74 1024.0
20200408054152 48 73 0.0 0.0 0.00 0.00 0.00 73 1024.0
20200408053652 48 73 0.0 0.0 0.00 0.00 0.00 73 1024.0